FLA31 KMCO-KPIT

Flight info

Callsign FLA31
Flight time N/A
Altitude 37000
Route RDSOX1 JFRYS DCT CAMJO/N0447F390 DCT ALLMA DCT IRQ DCT RICCS DCT LEJOY DEMME5
Aircraft A20N/M-SDE2E3FGHIRWXY/LB1

Departure

Time 2026-05-05 01:10
Airport Orlando International Airport (KMCO)

Arrival

Time N/A
Airport Pittsburgh International Airport (KPIT)
Time Latitude Longitude Altitude Speed Heading
2026-05-05 00:27 28.43348 -81.31525 102 ft 0 kts 338°
2026-05-05 00:56 28.43347 -81.31525 102 ft 0 kts 338°
2026-05-05 00:57 28.43342 -81.31523 102 ft 0 kts 338°
2026-05-05 00:57 28.43331 -81.31518 83 ft 2 kts 332°
2026-05-05 00:57 28.43320 -81.31510 95 ft 4 kts 309°
2026-05-05 00:57 28.43318 -81.31506 112 ft 0 kts 301°
2026-05-05 00:58 28.43312 -81.31485 101 ft 10 kts 262°
2026-05-05 00:58 28.43321 -81.31462 105 ft 0 kts 217°
2026-05-05 01:03 28.43313 -81.31469 102 ft 0 kts 217°
2026-05-05 01:03 28.43323 -81.31460 102 ft 0 kts 217°
2026-05-05 01:03 28.43309 -81.31473 101 ft 11 kts 217°
2026-05-05 01:04 28.43282 -81.31535 102 ft 11 kts 235°
2026-05-05 01:04 28.43268 -81.31551 101 ft 2 kts 248°
2026-05-05 01:04 28.43268 -81.31553 101 ft 0 kts 257°
2026-05-05 01:05 28.43276 -81.31624 101 ft 18 kts 282°
2026-05-05 01:05 28.43265 -81.31731 100 ft 12 kts 239°
2026-05-05 01:05 28.43222 -81.31802 101 ft 0 kts 232°
2026-05-05 01:05 28.43220 -81.31804 101 ft 4 kts 232°
2026-05-05 01:06 28.43195 -81.31859 101 ft 0 kts 255°
2026-05-05 01:06 28.43188 -81.31887 101 ft 0 kts 253°
2026-05-05 01:06 28.43165 -81.31935 102 ft 16 kts 236°
2026-05-05 01:06 28.43149 -81.31963 101 ft 0 kts 239°
2026-05-05 01:07 28.43104 -81.31990 101 ft 15 kts 194°
2026-05-05 01:07 28.43050 -81.31975 101 ft 5 kts 186°
2026-05-05 01:07 28.42956 -81.31992 102 ft 21 kts 184°
2026-05-05 01:07 28.42783 -81.31993 105 ft 27 kts 179°
2026-05-05 01:08 28.42561 -81.31993 108 ft 37 kts 184°
2026-05-05 01:08 28.42276 -81.31985 109 ft 45 kts 179°
2026-05-05 01:08 28.41968 -81.31981 103 ft 39 kts 179°
2026-05-05 01:08 28.41723 -81.31979 101 ft 14 kts 180°
2026-05-05 01:09 28.41712 -81.31978 100 ft 0 kts 180°
2026-05-05 01:09 28.41653 -81.31978 99 ft 17 kts 179°
2026-05-05 01:09 28.41535 -81.32042 100 ft 22 kts 264°
2026-05-05 01:09 28.41552 -81.32144 101 ft 18 kts 296°
2026-05-05 01:10 28.41688 -81.32202 100 ft 29 kts 359°
2026-05-05 01:10 28.42159 -81.32214 107 ft 108 kts 14°
2026-05-05 01:10 28.43081 -81.32148 314 ft 146 kts 347°
2026-05-05 01:10 28.44163 -81.32270 770 ft 168 kts 345°
2026-05-05 01:11 28.45387 -81.32461 1214 ft 184 kts 346°
2026-05-05 01:11 28.46240 -81.32598 1691 ft 188 kts 350°
2026-05-05 01:11 28.47523 -81.32607 2619 ft 177 kts 356°
2026-05-05 01:11 28.48692 -81.32596 3771 ft 160 kts 355°
2026-05-05 01:12 28.49863 -81.32648 4453 ft 184 kts 346°
2026-05-05 01:12 28.51213 -81.32905 4998 ft 213 kts 336°
2026-05-05 01:12 28.53392 -81.33442 5474 ft 266 kts 343°
2026-05-05 01:12 28.54680 -81.33479 5948 ft 282 kts 359°
2026-05-05 01:13 28.56542 -81.32705 6930 ft 290 kts 27°
2026-05-05 01:13 28.58183 -81.31446 8345 ft 279 kts 27°
2026-05-05 01:13 28.59552 -81.29983 9916 ft 261 kts 46°
2026-05-05 01:13 28.60123 -81.28152 11342 ft 238 kts 83°
2026-05-05 01:14 28.60350 -81.26404 12418 ft 231 kts 45°
2026-05-05 01:14 28.61769 -81.25505 12316 ft 262 kts 347°
2026-05-05 01:14 28.63644 -81.26009 12129 ft 304 kts 333°
2026-05-05 01:14 28.65761 -81.26947 12057 ft 345 kts 328°
2026-05-05 01:15 28.68035 -81.28105 12499 ft 368 kts 333°
2026-05-05 01:15 28.70527 -81.28845 13522 ft 376 kts 353°
2026-05-05 01:15 28.73148 -81.28840 14668 ft 379 kts
2026-05-05 01:15 28.75683 -81.28102 15998 ft 371 kts 14°
2026-05-05 01:16 28.77899 -81.27552 17363 ft 355 kts
2026-05-05 01:16 28.80262 -81.27067 19019 ft 334 kts
2026-05-05 01:16 28.82483 -81.26608 20448 ft 316 kts
2026-05-05 01:16 28.84614 -81.26223 21645 ft 305 kts
2026-05-05 01:17 28.86641 -81.25666 22865 ft 295 kts 11°
2026-05-05 01:17 28.88578 -81.24988 23856 ft 286 kts
2026-05-05 01:17 28.90428 -81.24277 24656 ft 277 kts
2026-05-05 01:17 28.92328 -81.24208 24840 ft 276 kts 342°
2026-05-05 01:18 28.94266 -81.24647 24998 ft 293 kts 340°
2026-05-05 01:18 28.96326 -81.25163 25144 ft 313 kts 340°
2026-05-05 01:18 28.98516 -81.25729 25295 ft 332 kts 340°
2026-05-05 01:18 29.00832 -81.26343 25440 ft 350 kts 340°
2026-05-05 01:19 29.03261 -81.27001 25585 ft 368 kts 340°
2026-05-05 01:19 29.05805 -81.27700 25737 ft 384 kts 340°
2026-05-05 01:19 29.08454 -81.28438 25880 ft 399 kts 340°
2026-05-05 01:19 29.11192 -81.29210 26149 ft 410 kts 340°
2026-05-05 01:20 29.13973 -81.29990 26686 ft 413 kts 340°
2026-05-05 01:20 29.16776 -81.30764 27252 ft 415 kts 340°
2026-05-05 01:20 29.19598 -81.31531 27766 ft 419 kts 340°
2026-05-05 01:20 29.22448 -81.32294 28278 ft 422 kts 340°
2026-05-05 01:21 29.25319 -81.33054 28755 ft 425 kts 340°
2026-05-05 01:21 29.28212 -81.33810 29240 ft 428 kts 340°
2026-05-05 01:21 29.31125 -81.34562 29691 ft 431 kts 340°
2026-05-05 01:21 29.34025 -81.35303 30136 ft 434 kts 340°
2026-05-05 01:22 29.36658 -81.35969 30508 ft 435 kts 340°
2026-05-05 01:22 29.39661 -81.36730 30973 ft 436 kts 340°
2026-05-05 01:22 29.42582 -81.37474 31464 ft 436 kts 340°
2026-05-05 01:22 29.45536 -81.38227 32034 ft 433 kts 340°
2026-05-05 01:23 29.48466 -81.38973 32647 ft 430 kts 340°
2026-05-05 01:23 29.51377 -81.39713 33274 ft 426 kts 340°
2026-05-05 01:23 29.54259 -81.40448 33879 ft 422 kts 339°
2026-05-05 01:23 29.56973 -81.41546 34370 ft 408 kts 327°
2026-05-05 01:24 29.59355 -81.43253 34708 ft 401 kts 318°
2026-05-05 01:24 29.61603 -81.45156 35051 ft 401 kts 318°
2026-05-05 01:24 29.62472 -81.45895 35191 ft 401 kts 318°
2026-05-05 01:25 29.65220 -81.48244 35621 ft 401 kts 318°
2026-05-05 01:26 29.67464 -81.50161 35958 ft 402 kts 318°
2026-05-05 01:26 29.69709 -81.52070 36293 ft 402 kts 318°
2026-05-05 01:26 29.71966 -81.53980 36613 ft 402 kts 318°
2026-05-05 01:26 29.74221 -81.55882 36886 ft 404 kts 318°
2026-05-05 01:27 29.78814 -81.59756 37018 ft 415 kts 318°
2026-05-05 01:27 29.83504 -81.63726 37015 ft 425 kts 318°
2026-05-05 01:28 29.88053 -81.67587 37019 ft 431 kts 318°
2026-05-05 01:28 29.92892 -81.71699 37006 ft 433 kts 318°
2026-05-05 01:29 29.97754 -81.75838 37006 ft 435 kts 318°
2026-05-05 01:29 30.02628 -81.79992 37012 ft 435 kts 318°
2026-05-05 01:30 30.07503 -81.84153 37014 ft 436 kts 318°
2026-05-05 01:30 30.12374 -81.88318 37018 ft 435 kts 318°
2026-05-05 01:31 30.17239 -81.92485 37016 ft 435 kts 318°
2026-05-05 01:31 30.22097 -81.96653 37016 ft 434 kts 318°
2026-05-05 01:32 30.26942 -82.00818 37024 ft 433 kts 318°
2026-05-05 01:32 30.31751 -82.04953 37036 ft 433 kts 318°
2026-05-05 01:33 30.36582 -82.09108 37051 ft 432 kts 318°
2026-05-05 01:33 30.41406 -82.13263 37064 ft 431 kts 318°
2026-05-05 01:34 30.45973 -82.17199 37073 ft 431 kts 318°
2026-05-05 01:34 30.50781 -82.21342 37070 ft 430 kts 318°
2026-05-05 01:35 30.55577 -82.25476 37070 ft 429 kts 318°
2026-05-05 01:35 30.60300 -82.29538 37059 ft 415 kts 318°
2026-05-05 01:36 30.64901 -82.33477 37053 ft 406 kts 318°
2026-05-05 01:36 30.69424 -82.37341 37048 ft 401 kts 318°
2026-05-05 01:37 30.73900 -82.41163 37043 ft 397 kts 319°
2026-05-05 01:37 30.78473 -82.44689 37035 ft 402 kts 330°
2026-05-05 01:38 30.83981 -82.46239 37032 ft 421 kts 351°
2026-05-05 01:38 30.89861 -82.46117 37023 ft 422 kts 352°
2026-05-05 01:39 30.95723 -82.45937 37020 ft 420 kts 352°
2026-05-05 01:39 31.01559 -82.45750 37017 ft 418 kts 352°
2026-05-05 01:40 31.07062 -82.45565 37011 ft 417 kts 352°
2026-05-05 01:40 31.12855 -82.45365 37013 ft 415 kts 352°
2026-05-05 01:41 31.18627 -82.45160 37006 ft 414 kts 352°
2026-05-05 01:41 31.24375 -82.44952 37008 ft 413 kts 352°
2026-05-05 01:42 31.30113 -82.44739 37012 ft 412 kts 352°
2026-05-05 01:42 31.35807 -82.44524 37006 ft 411 kts 352°
2026-05-05 01:43 31.41584 -82.44316 36990 ft 420 kts 352°
2026-05-05 01:43 31.47483 -82.44127 36990 ft 428 kts 352°
2026-05-05 01:44 31.53497 -82.43960 36992 ft 436 kts 352°
2026-05-05 01:44 31.59599 -82.43806 36990 ft 440 kts 352°
2026-05-05 01:45 31.65766 -82.43553 36990 ft 447 kts 355°
2026-05-05 01:45 31.71985 -82.42899 36990 ft 450 kts 356°
2026-05-05 01:46 31.77921 -82.42272 36992 ft 451 kts 356°
2026-05-05 01:46 31.84178 -82.41621 36995 ft 451 kts 356°
2026-05-05 01:47 31.90442 -82.40981 36994 ft 452 kts 356°
2026-05-05 01:47 31.96678 -82.40353 36991 ft 453 kts 356°
2026-05-05 01:48 32.02966 -82.39731 36994 ft 453 kts 356°
2026-05-05 01:48 32.09256 -82.39122 36999 ft 454 kts 356°
2026-05-05 01:49 32.15558 -82.38523 36997 ft 454 kts 356°
2026-05-05 01:49 32.21859 -82.37937 36998 ft 454 kts 356°
2026-05-05 01:50 32.28163 -82.37361 37000 ft 454 kts 356°
2026-05-05 01:50 32.34473 -82.36801 36996 ft 455 kts 356°
2026-05-05 01:51 32.40795 -82.36260 36993 ft 455 kts 356°
2026-05-05 01:51 32.47075 -82.35741 36995 ft 456 kts 356°
2026-05-05 01:52 32.53086 -82.35262 36991 ft 456 kts 356°
2026-05-05 01:52 32.59431 -82.34775 36985 ft 457 kts 356°
2026-05-05 01:53 32.65781 -82.34306 36979 ft 457 kts 356°
2026-05-05 01:53 32.72140 -82.33854 36982 ft 458 kts 356°
2026-05-05 01:54 32.78499 -82.33419 36981 ft 458 kts 356°
2026-05-05 01:54 32.84872 -82.33000 36979 ft 459 kts 356°
2026-05-05 01:55 32.91252 -82.32596 36976 ft 459 kts 356°
2026-05-05 01:55 32.97601 -82.32210 36977 ft 460 kts 356°
2026-05-05 01:56 33.03996 -82.31835 36975 ft 460 kts 356°
2026-05-05 01:56 33.10395 -82.31475 36967 ft 460 kts 356°
2026-05-05 01:57 33.15762 -82.31183 36980 ft 461 kts 356°
2026-05-05 01:57 33.22128 -82.30848 36968 ft 461 kts 356°
2026-05-05 01:58 33.28205 -82.30542 36985 ft 461 kts 356°
2026-05-05 01:58 33.34629 -82.30230 36994 ft 462 kts 356°
2026-05-05 01:59 33.41052 -82.29905 37008 ft 465 kts 359°
2026-05-05 01:59 33.44258 -82.29164 37015 ft 475 kts 11°
2026-05-05 01:59 33.47350 -82.27690 36995 ft 481 kts 19°
2026-05-05 02:00 33.53436 -82.24312 36995 ft 482 kts 19°
2026-05-05 02:00 33.59538 -82.20923 36998 ft 483 kts 19°
2026-05-05 02:01 33.65650 -82.17545 36993 ft 484 kts 19°
2026-05-05 02:01 33.71775 -82.14179 36990 ft 483 kts 19°
2026-05-05 02:02 33.77897 -82.10827 36984 ft 484 kts 19°
2026-05-05 02:02 33.84031 -82.07483 36983 ft 484 kts 19°
2026-05-05 02:03 33.90170 -82.04146 36982 ft 484 kts 19°
2026-05-05 02:03 33.96318 -82.00812 36986 ft 484 kts 19°
2026-05-05 02:04 34.02093 -81.97685 36989 ft 484 kts 19°
2026-05-05 02:04 34.08251 -81.94359 36990 ft 484 kts 19°
2026-05-05 02:05 34.14411 -81.91042 36996 ft 484 kts 19°
2026-05-05 02:05 34.20561 -81.87739 37007 ft 484 kts 19°
2026-05-05 02:06 34.26719 -81.84441 37012 ft 484 kts 19°
2026-05-05 02:06 34.32883 -81.81148 37012 ft 484 kts 19°
2026-05-05 02:07 34.39040 -81.77867 37013 ft 483 kts 19°
2026-05-05 02:07 35.08520 -81.48980 37013 ft 32000 kts 19°
2026-05-05 02:07 35.62244 -81.26653 37483 ft 472 kts 14°
2026-05-05 02:08 35.65385 -81.25202 36745 ft 488 kts 16°
2026-05-05 02:08 35.68534 -81.23657 36771 ft 486 kts 17°
2026-05-05 02:08 36.27631 -80.99957 36827 ft 32000 kts 18°
2026-05-05 02:08 36.63029 -80.85844 37443 ft 0 kts 11°
2026-05-05 02:09 36.78922 -80.82061 37892 ft 457 kts
2026-05-05 02:09 36.82123 -80.81164 37157 ft 473 kts
2026-05-05 02:09 36.85323 -80.80326 37308 ft 469 kts
2026-05-05 02:09 36.88526 -80.79548 37334 ft 468 kts
2026-05-05 02:10 36.94599 -80.78176 37248 ft 469 kts
2026-05-05 02:10 36.97818 -80.77375 37134 ft 472 kts
2026-05-05 02:10 37.01031 -80.76460 37069 ft 474 kts
2026-05-05 02:11 37.07377 -80.74309 36944 ft 477 kts 12°
2026-05-05 02:11 40.44995 -80.23705 1651 ft 475 kts
2026-05-05 02:12 40.48094 -79.99942 2369 ft 2667 kts 271°
2026-05-05 02:12 40.48404 -80.01390 2409 ft 264 kts 287°